STARLINK-34986

Last updated on Fri Dec 12 2025 00:02:05 GMT+0000 (Coordinated Universal Time)

1 66446U 25259AA 25345.58335648 -.01014219 00000+0 -26067-1 0 9991 2 66446 43.0010 54.0793 0001273 279.7438 8.2072 15.41415360 6091

Satellite not in orbit